www.pogodaiklimat.ru

Погода и климат >> Архив погоды >> Алжир >> Mostaganem Ville


ПОГОДА в Mostaganem Ville

  • Прогноз погоды в Mostaganem Ville
  • Монитор погоды в Mostaganem Ville
  • Климат города

АРХИВ ПОГОДЫ в Mostaganem Ville

Время (UTC), дата Ветер
(напр.,м/с)
 
Видим.   Явления Облачность Т
(С)
Тd
(С)
f
(%)
Тe
(С)
Тes
(С)
Комфортность P
(гПа)
Po
(гПа)
Тmin
(С)
Tmax
(С)
R
(мм)
R24
(мм)
S
(см)
06 19.05 СВ 1 12 км 4/0
[Ci fib]
+14.8 +10.5 75 +15 +16 1017.2 1017.0 +11.7
09 19.05 С 2 12 км 3/0
[Ci fib]
+23.0 +10.7 46 +25 +38 комфорт 1018.0 1018.0
12 19.05 СЗ 3 12 км 1/0
[Ci fib]
+25.6 +13.1 46 +28 +44 жарко 1017.3 1017.0
15 19.05 СВ 3 12 км 3/0
[Ci fib]
+27.3 +14.1 44 +29 +39 жарко 1016.5 1017.0
18 19.05 СВ 3 12 км 5/0
[Ci fib]
+25.5 +11.3 41 +27 +28 жарко 1016.4 1016.0 +27.5
06 20.05 штиль 0 1000 м дымка 5/5 300 м
[St]
+15.3 +14.6 96 +15 +16 1020.0 1020.0 +11.8
09 20.05 СЗ 2 8000 м 3/1 600 м
[Cu hum Ci fib]
+20.5 +16.2 76 +24 +35 комфорт 1020.9 1021.0
12 20.05 СЗ 4 10 км 1/0
[Ci fib]
+26.5 +15.3 50 +29 +43 жарко 1019.2 1019.0
15 20.05 СВ 5 10 км ясно +30.7 +9.5 27 +30 +36 жарко 1017.8 1018.0
18 20.05 СВ 6 15 км ясно +27.5 +6.2 26 +27 +27 жарко 1017.3 1017.0 +30.8
06 21.05 штиль 0 10 км 3/0
[Ci fib]
+19.2 +6.8 44 +20 +21 1017.6 1018.0 +11.5
09 21.05 СВ 3 15 км 5/0
[Ci fib]
+26.3 +7.9 31 +26 +35 жарко 1017.3 1017.0
12 21.05 ЮВ 1 15 км 8/0
[Ci sp]
+33.0 +7.1 20 +31 +52 опасность
солнечного
удара
1015.1 1015.0
15 21.05 СВ 3 15 км 6/0
[Ci fib]
+35.4 +6.6 17 +33 +42 жарко 1012.6 1013.0
18 21.05 СВ 2 13 км 9/0
[Ci sp]
+30.3 +4.7 20 +28 +29 жарко 1011.5 1012.0 +35.6
06 22.05 ЮВ 3 8000 м 10/4 800 м
[Sc As op]
+18.0 +15.5 85 +18 +18 1013.3 1013.0 +17.6
09 22.05 штиль 0 8000 м 10/5 800 м
[Cu med, cong As op]
+20.4 +15.8 75 +23 +25 комфорт 1014.7 1015.0
12 22.05 С 2 8000 м 9/0
[Ac cast Ci sp]
+21.9 +16.9 73 +26 +41 душно 1015.2 1015.0
15 22.05 СЗ 3 8000 м 9/0
[Ac cast Ci sp]
+23.3 +16.2 64 +28 +34 душно 1013.4 1013.0
18 22.05 З 3 8000 м 8/0
[Ci sp]
+21.2 +16.3 74 +25 +25 комфорт 1012.8 1013.0 +26.0
06 23.05 штиль 0 8000 м 8/3 300 м
[St Ci sp]
+17.3 +16.3 94 +17 +18 1015.7 1016.0 +16.2
09 23.05 СЗ 3 8000 м 8/3 600 м
[Cu med, cong Ci sp]
+21.5 +17.7 79 +26 +33 душно 1016.3 1016.0
12 23.05 СЗ 2 8000 м 9/5 800 м
[Sc Ci sp]
+22.5 +18.1 76 +28 +37 душно 1017.0 1017.0
18 23.05 Ю 2 8000 м 9/5 800 м
[Sc Ci sp]
+24.7 +17.4 64 +29 +29 душно 1015.0 1015.0 +26.6
06 24.05 штиль 0 10 км 9/4 800 м
[Sc Ci sp]
+18.6 +17.3 92 +19 +20 1016.6 1017.0 +18.1
09 24.05 С 1 10 км 4/0
[Ac cast Ci fib]
+23.9 +18.8 73 +29 +40 душно 1017.0 1017.0
12 24.05 СЗ 2 10 км 3/0
[Ac cast Ci fib]
+27.8 +18.9 58 +33 +51 опасность
солнечного
удара
1015.2 1015.0
15 24.05 СВ 4 10 км 4/0
[Ac cast Ci fib]
+34.2 +14.8 31 +36 +42 душно 1012.5 1013.0
18 24.05 СВ 5 10 км 3/0
[Ci fib]
+30.1 +14.1 38 +32 +32 жарко 1011.9 1012.0 +34.5
06 25.05 штиль 0 7000 м 8/8 800 м
[Sc]
+18.8 +17.6 93 +20 +20 1013.3 1013.0 +18.3
09 25.05 штиль 0 8000 м 6/4 800 м
[Sc Ci sp]
+27.8 +19.1 59 +33 +43 очень
душно
1013.2 1013.0
12 25.05 СЗ 3 10 км ясно +34.9 +18.6 38 +39 +39 очень
душно
1012.1 1012.0
15 25.05 В 4 12 км ясно +37.4 +13.6 24 +38 +47 душно 1008.5 1009.0
18 25.05 В 4 10 км 9/9 800 м
[Sc]
+32.6 +12.2 29 +33 +33 жарко 1008.2 1008.0 +37.6

 

Местоположение метеостанции Mostaganem Ville (Алжир): широта 35.88 долгота 0.12 высота над уровнем моря 138 м.

В архиве по умолчанию представлена погода в Mostaganem Ville за последнюю неделю. Архивные данные за месяц целиком и за предыдущие месяцы, начиная с января 2011 года, Вы можете получить, выбрав интересующий диапазон дат из раскрывающегося списка и нажав кнопку "Ввод!".

Внимание! Время в таблицах - всемирное. Для получения местного времени необходимо прибавить поправку, которая в Mostaganem Ville равна 1 ч.

Смотрите также архив погоды в соседних городах и на ближайших метеорологических станциях:

Погода в Arzew (Алжир) (36 км)
Погода в Relizane (Алжир) (42 км)
Погода в Oran (Es Senia) (Алжир) (71 км)
Погода в Oran-Port (Алжир) (72 км)
Погода в Oran Tafaraoui (Алжир) (73 км)
Погода в Mascara Ghriss (Алжир) (73 км)
Погода в Sidi Bel Abbes (Алжир) (101 км)
Погода в Saida (Алжир) (112 км)
Погода в Chlef (Алжир) (115 км)
Погода в Tenes (Алжир) (129 км)

Пояснения к столбцам:

Ветер - указаны скорость ветра в м/с - средняя за 10 мин, порывы в срок и между сроками (в фигурных скобках) и направление, откуда дует ветер: С - северный, СВ - северо-восточный, В - восточный, ЮВ - юго-восточный, Ю - южный, ЮЗ - юго-западный, З - западный, СЗ - северо-западный.
Видимость - горизонтальная дальность видимости в метрах или километрах. При видимости от 1 до 10 км при отсутствии осадков обычно наблюдается дымка, при ухудшении видимости до 1 км и менее - туман. В сухую погоду видимость может ухудшаться дымом, пылью или мглою.
Явления - указаны атмосферные явления, наблюдавшиеся в срок или в последний час перед сроком; фигурными скобками обозначены явления, наблюдавшиеся между сроками (за 1-3 часа до срока); квадратными скобками обозначены град или гололедные отложения с указанием их диаметра в мм.
Облачность - указаны через наклонную черту общая и нижняя облачность в баллах и высота нижней границы облаков в метрах; квадратными скобками обозначены формы облаков: Ci - перистые, Cs - перисто-слоистые, Cc - перисто-кучевые, Ac - высококучевые, As - высокослоистые, Sc - слоисто-кучевые, Ns - слоисто-дождевые, Cu - кучевые, Cb - кучево-дождевые. Подробнее классификацию облаков см. в Атласе облаков (PDF).
T - Температура воздуха - температура, измеренная на высоте 2 м над землей.
Td - Температура точки росы - температура, при понижении до которой содержащийся в воздухе водяной пар достигнет насыщения.
f - Относительная влажность воздуха - влажноcть воздуха, измеренная на высоте 2 м над землей.
Te - Эффективная температура - температура, которую ощущает одетый по сезону человек в тени. Характеристика душности погоды. При расчете учитывается влияние влажности воздуха и скорости ветра на теплоощущения человека.
Tes - Эффективная температура на солнце - температура, которую ощущает человек, с поправкой на солнечный нагрев. Характеристика знойности погоды. Зависит от высоты солнца над горизонтом, облачности и скорости ветра. Ночью, в пасмурную погоду, а также при ветре 12 м/с и более поправка равна нулю.
P - Атмосферное давление - приведенное к уровню моря атмосферное давление.
Po - Атмосферное давление - измеренное на уровне метеостанции атмосферное давление.
Tmin - Минимальная температура - минимум температуры воздуха на высоте 2 м над землей.
Tmax - Максимальная температура - максимум температуры воздуха на высоте 2 м над землей.
R - Количество осадков - Количество выпавших осадков за период времени, мм. При наведении курсора мыши на число - период времени, за который выпало указанное количество осадков.
R24 - Количество осадков - Количество выпавших осадков за 24 часа, мм.
S - Снежный покров - Высота снежного покрова, см. При наведении курсора мыши на число - состояние снежного покрова и степень покрытия местности в баллах.